Total_Precipitation_Accumulation
1.26 1.22 1.16 1.21 1.09 1.01 1.08 1.14 1.17 1.19 1.08 0.94 0.90 0.92 1.00 0.93 0.94 1.08 1.38 1.84 2.41 2.88 3.07 2.98 2.77 2.65 2.71 2.69 2.82 3.04 3.25 3.37 3.21 3.06 2.86 2.67 2.75 2.81 2.51 2.40 2.43 2.48 2.67
1.29 1.34 1.27 1.21 1.15 1.06 1.09 1.26 1.22 1.24 1.22 1.15 0.99 0.99 1.02 0.96 0.95 0.99 1.13 1.49 1.87 2.31 2.83 3.18 3.01 2.75 2.53 2.48 2.52 2.70 2.99 3.07 2.81 2.76 2.76 2.77 2.93 2.99 2.66 2.46 2.35 2.27 2.48
1.14 1.21 1.23 1.17 1.15 1.16 1.18 1.23 1.27 1.34 1.26 1.16 1.12 1.08 1.06 1.02 0.93 0.96 0.93 1.08 1.21 1.59 2.09 2.56 2.88 2.89 2.72 2.63 2.59 2.71 2.92 2.84 2.62 2.69 2.80 2.80 2.79 2.84 2.77 2.58 2.35 2.25 2.39
1.21 1.20 1.23 1.22 1.25 1.29 1.28 1.31 1.38 1.37 1.32 1.32 1.28 1.24 1.11 1.08 1.02 1.00 0.93 0.93 1.01 1.05 1.32 1.65 2.05 2.44 2.67 2.79 2.97 3.15 3.01 2.72 2.51 2.50 2.64 2.50 2.41 2.51 2.62 2.58 2.32 2.16 2.07
1.29 1.41 1.44 1.44 1.40 1.42 1.41 1.36 1.39 1.32 1.32 1.34 1.26 1.29 1.24 1.19 1.13 1.00 1.02 0.99 1.00 0.95 1.03 1.05 1.23 1.49 1.88 2.37 3.00 3.27 2.88 2.62 2.46 2.29 2.25 2.19 2.20 2.31 2.36 2.21 2.07 1.91 1.86
1.54 1.72 1.80 1.69 1.65 1.64 1.62 1.57 1.62 1.51 1.40 1.44 1.34 1.32 1.28 1.19 1.21 1.18 1.15 1.09 1.13 1.06 1.00 0.90 0.90 0.87 1.13 1.66 2.41 2.87 2.80 2.65 2.45 2.33 2.17 2.11 2.20 2.33 2.28 2.14 2.04 2.02 1.99
1.85 1.99 1.91 1.99 2.00 1.86 1.86 1.92 1.96 1.92 1.74 1.61 1.67 1.56 1.31 1.13 1.20 1.17 1.16 1.21 1.21 1.29 1.27 1.11 0.98 0.92 0.93 1.15 1.70 2.33 2.69 2.67 2.64 2.48 2.36 2.29 2.22 2.24 2.23 2.16 2.11 2.09 2.10
2.07 2.11 2.18 2.26 2.29 2.29 2.22 2.12 2.23 2.37 2.12 1.89 1.99 2.27 1.90 1.56 1.21 0.99 1.11 1.18 1.22 1.44 1.47 1.26 1.05 0.99 0.99 1.12 1.11 1.46 1.92 2.35 2.58 2.60 2.50 2.39 2.32 2.34 2.37 2.23 2.07 2.06 2.08
2.29 2.33 2.38 2.43 2.44 2.29 2.28 2.39 2.52 2.86 2.68 2.31 2.10 2.37 2.21 1.91 1.63 1.19 1.09 1.17 1.24 1.38 1.47 1.50 1.37 1.29 1.19 1.22 1.22 1.03 1.21 1.66 2.14 2.52 2.61 2.58 2.43 2.60 2.82 2.57 2.17 2.00 1.89
2.27 2.39 2.38 2.36 2.32 2.25 2.31 2.38 2.43 2.85 3.07 2.78 2.43 2.02 1.81 1.77 1.88 1.63 1.22 1.16 1.24 1.24 1.33 1.42 1.38 1.44 1.42 1.43 1.42 1.14 1.03 1.27 1.67 2.24 2.64 2.97 2.78 2.59 2.63 2.70 2.48 2.14 1.89
2.17 2.19 2.18 2.27 2.27 2.29 2.35 2.51 2.64 2.91 2.94 2.94 2.76 2.54 2.30 1.98 1.65 1.75 1.71 1.42 1.34 1.24 1.31 1.42 1.47 1.56 1.60 1.62 1.75 1.46 1.14 1.04 1.28 1.79 2.39 2.96 3.12 2.88 2.64 2.60 2.53 2.35 2.06
2.15 2.06 2.00 2.07 2.20 2.33 2.37 2.45 2.61 2.86 2.98 3.06 2.99 2.71 2.60 2.43 2.16 2.06 1.83 1.68 1.63 1.39 1.35 1.38 1.41 1.53 1.69 1.78 1.74 1.86 1.51 1.11 1.02 1.34 1.73 2.28 2.93 3.18 3.02 2.91 2.82 2.72 2.50
1.83 1.88 1.93 2.01 2.13 2.22 2.29 2.41 2.54 2.59 2.71 2.96 2.98 2.82 2.59 2.40 2.39 2.27 2.18 1.88 1.67 1.44 1.41 1.41 1.38 1.41 1.44 1.72 1.86 1.96 1.62 1.25 0.98 1.00 1.19 1.49 2.04 2.65 2.94 2.96 2.96 3.10 3.12
1.72 1.67 1.71 1.77 1.99 2.17 2.25 2.34 2.35 2.33 2.39 2.58 2.59 2.67 2.64 2.37 2.34 2.24 2.26 2.37 2.09 1.81 1.61 1.41 1.33 1.37 1.39 1.58 1.89 1.98 1.55 1.37 1.12 0.97 0.99 1.22 1.45 1.67 2.05 2.56 2.88 3.09 3.33
1.50 1.46 1.50 1.52 1.64 1.85 2.09 2.23 2.20 2.12 2.08 2.23 2.31 2.42 2.56 2.59 2.50 2.40 2.38 2.48 2.48 2.21 1.95 1.68 1.46 1.34 1.40 1.51 1.91 1.80 1.58 1.47 1.34 1.13 1.01 1.08 1.16 1.30 1.42 1.74 2.05 2.23 2.43
1.31 1.26 1.26 1.37 1.53 1.64 1.81 2.02 2.10 2.04 2.04 2.12 2.22 2.35 2.51 2.65 2.67 2.46 2.42 2.42 2.33 2.30 2.14 1.75 1.49 1.40 1.48 1.46 1.81 1.79 1.71 1.74 1.50 1.32 1.21 1.17 1.21 1.20 1.22 1.35 1.44 1.49 1.46
1.14 1.14 1.29 1.36 1.44 1.53 1.71 1.95 2.12 2.12 2.05 2.05 2.04 2.12 2.30 2.42 2.64 2.61 2.51 2.42 2.31 2.20 2.10 1.88 1.65 1.49 1.57 1.60 1.71 1.82 1.78 1.66 1.46 1.40 1.25 1.19 1.18 1.20 1.18 1.23 1.35 1.27 1.17
0.88 1.00 1.14 1.19 1.25 1.28 1.47 1.75 1.95 2.00 1.97 1.87 1.82 1.92 2.13 2.32 2.54 2.66 2.62 2.48 2.40 2.27 2.19 2.16 1.98 1.75 1.66 1.67 1.82 1.92 1.86 1.79 1.70 1.70 1.53 1.35 1.26 1.22 1.21 1.18 1.22 1.30 1.25
0.90 1.00 1.09 1.14 1.18 1.24 1.28 1.40 1.58 1.72 1.71 1.64 1.65 1.68 1.71 1.90 2.18 2.38 2.42 2.46 2.49 2.47 2.46 2.33 2.15 2.06 1.93 1.75 1.87 1.94 1.92 1.95 1.85 1.89 1.82 1.67 1.57 1.48 1.36 1.25 1.19 1.21 1.27
0.87 0.95 1.00 1.08 1.18 1.22 1.22 1.25 1.28 1.35 1.39 1.47 1.52 1.51 1.55 1.59 1.82 2.01 2.12 2.30 2.53 2.58 2.63 2.56 2.33 2.19 2.09 1.91 1.98 2.09 2.17 2.13 2.04 1.90 1.89 1.78 1.75 1.66 1.50 1.30 1.19 1.14 1.19
0.82 0.89 0.93 0.93 0.99 1.10 1.19 1.23 1.12 1.10 1.21 1.32 1.33 1.26 1.27 1.40 1.59 1.72 1.73 2.05 2.40 2.61 2.61 2.58 2.45 2.37 2.11 1.98 1.85 1.84 2.03 2.27 2.28 2.23 2.13 1.87 1.76 1.62 1.56 1.51 1.36 1.23 1.19
0.81 0.85 0.81 0.82 0.90 0.92 1.13 1.14 0.98 0.95 1.03 1.14 1.24 1.21 1.09 1.09 1.19 1.32 1.39 1.52 1.78 2.02 2.33 2.54 2.50 2.34 2.05 1.94 1.90 1.90 1.93 2.05 2.22 2.16 2.19 2.19 2.11 2.02 1.89 1.75 1.74 1.59 1.45
0.76 0.77 0.76 0.75 0.77 0.88 0.96 0.85 0.86 0.85 0.93 1.01 1.10 1.17 1.09 0.97 1.10 1.17 1.30 1.37 1.34 1.40 1.69 2.08 2.26 2.24 2.25 2.15 2.08 1.95 1.91 1.96 2.01 2.02 2.23 2.25 2.21 2.20 2.12 2.11 2.20 2.00 1.79
0.75 0.75 0.78 0.77 0.76 0.82 0.84 0.72 0.79 0.80 0.82 0.88 1.02 1.13 1.19 1.12 1.15 1.27 1.26 1.29 1.21 1.17 1.41 1.42 1.64 2.03 2.22 2.31 2.22 2.22 2.35 2.29 2.12 2.01 2.06 2.11 1.98 2.00 2.03 2.05 2.21 2.12 1.97
0.73 0.76 0.81 0.82 0.75 0.74 0.82 0.74 0.76 0.77 0.79 0.83 0.87 0.97 1.07 1.05 1.26 1.38 1.32 1.45 1.43 1.29 1.46 1.55 1.62 1.74 1.93 2.13 2.21 2.16 2.17 2.22 2.18 2.07 1.91 1.80 1.71 1.73 1.80 1.84 1.87 1.97 1.96
0.56 0.66 0.66 0.67 0.71 0.71 0.92 0.85 0.84 0.77 0.81 0.91 0.95 0.93 1.11 1.15 1.31 1.30 1.19 1.41 1.44 1.37 1.32 1.37 1.37 1.41 1.37 1.56 1.85 1.91 2.07 2.11 2.04 1.95 1.72 1.61 1.56 1.61 1.64 1.50 1.39 1.40 1.43